AirNav   Everest Fuels
 
 1205 users online  

4M1 Carroll County Airport
Berryville, Arkansas, USA

GOING TO BERRYVILLE?


FAA INFORMATION EFFECTIVE 04 NOVEMBER 2021

Location

FAA Identifier: 4M1
Lat/Long: 36-22-52.8000N 093-37-28.4000W
36-22.880000N 093-37.473333W
36.3813333,-93.6245556
(estimated)
Elevation: 1205.5 ft. / 367.4 m (surveyed)
Variation: 02E (2010)
From city: 3 miles W of BERRYVILLE, AR
Time zone: UTC -5 (UTC -6 during Standard Time)
Zip code: 72616

Airport Operations

Airport use: Open to the public
Activation date: 05/1966
Control tower: no
ARTCC: MEMPHIS CENTER
FSS: JONESBORO FLIGHT SERVICE STATION
NOTAMs facility: JBR (NOTAM-D service available)
Attendance: WED - SUN 0800-1700
Wind indicator: lighted
Segmented circle: yes
Lights: ACTVT REIL RWY 07 & 25; PAPI RWY 07 & 25, MIRL RWY 07/25; TWY LGTS - CTAF.
Beacon: white-green (lighted land airport)
Operates sunset to sunrise.

Airport Communications

CTAF: 122.9
RAZORBACK APPROACH: 126.6
RAZORBACK DEPARTURE: 126.6
  • APCH/DEP SVC PRVDD BY MEMPHIS ARTCC ON FREQS 126.1/269.0 (FAYETTEVILLE RCAG) WHEN RAZORBACK APCH CTL CLSD.

Nearby radio navigation aids

VOR radial/distance  VOR name  Freq  Var
HROr277/20.2HARRISON VOR/DME112.5004E
RZCr067/25.3RAZORBACK VORTAC116.4004E

Airport Services

Fuel available: 100LL
100LL:FUEL AVBL 24 HR SELF SERVE WITH CREDIT CARD.
Parking: hangars and tiedowns
Airframe service: MAJOR
Powerplant service: MAJOR
Bottled oxygen: NONE
Bulk oxygen: NONE

Runway Information

Runway 7/25

Dimensions: 3554 x 75 ft. / 1083 x 23 m
Surface: asphalt, in good condition
Weight bearing capacity: 
Single wheel: 12.0
Runway edge lights: medium intensity
RUNWAY 7  RUNWAY 25
Latitude: 36-22.797025N36-22.964125N
Longitude: 093-37.819565W093-37.125405W
Elevation: 1166.6 ft.1204.9 ft.
Traffic pattern: leftleft
Runway heading: 071 magnetic, 073 true251 magnetic, 253 true
Markings: nonprecision, in good conditionnonprecision, in good condition
Visual slope indicator: 2-light PAPI on left (3.00 degrees glide path)2-light PAPI on left (3.00 degrees glide path)
Runway end identifier lights: yesyes
Touchdown point: yes, no lightsyes, no lights
Obstructions: 11 ft. trees, 300 ft. from runway, 215 ft. left of centerline, 9:1 slope to clear23 ft. trees, 600 ft. from runway, 135 ft. left of centerline, 17:1 slope to clear

Airport Ownership and Management from official FAA records

Ownership: Publicly-owned
Owner: CARROLL COUNTY
210 WEST CHURCH ST.
BERRYVILLE, AR 72616
Phone 870-423-2967
Manager: MICHAEL PFEIFER
518 COUNTY ROAD 308
BERRYVILLE, AR 72616
Phone 870-423-8393

Airport Operational Statistics

Aircraft based on the field: 34
Single engine airplanes: 32
Multi engine airplanes: 2
    
Aircraft operations: avg 98/week *
59% transient general aviation
39% local general aviation
2% military
* for 12-month period ending 30 June 2020

Additional Remarks

NO LINE OF SIGHT BTN RY ENDS.
ULTRALIGHT ACTIVITY ON & INVOF ARPT.
DEER ON & INVOF ARPT.
FOR CD CTC RAZORBACK APCH 479-649-2416, WHEN APCH CLSD CTC MEMPHIS ARTCC AT 901-368-8453/8449.

Instrument Procedures

NOTE: All procedures below are presented as PDF files. If you need a reader for these files, you should download the free Adobe Reader.

NOT FOR NAVIGATION. Please procure official charts for flight.
FAA instrument procedures published for use from 04 November 2021 at 0901Z to 02 December 2021 at 0900z.

 
IAPs - Instrument Approach Procedures
RNAV (GPS) RWY 07   download (243KB)
RNAV (GPS) RWY 25   download (283KB)
NOTE: Special Take-Off Minimums/Departure Procedures apply   download (131KB)

Other nearby airports with instrument procedures:

H34 - Huntsville Municipal Airport (19 nm S)
KFWB - Branson West Municipal Airport - Emerson Field (22 nm NE)
KBBG - Branson Airport (22 nm NE)
94K - Cassville Municipal Airport (23 nm NW)
KROG - Rogers Executive Airport - Carter Field (23 nm W)
 
Loc | Ops | Rwys | IFR | FBO | Links
Com | Nav | Svcs | Stats | Notes

Branson Jet Center
AirBoss

 
Area around 4M1 (Carroll County Airport)
 
Road maps at: MapQuest Bing Google
 
Aerial photo
WARNING: Photo may not be current or correct
Aerial photo of 4M1 (Carroll County Airport)
Photo courtesy of the Arkansas Department of Aeronautics
Taken in the Spring of 2007

Do you have a better or more recent aerial photo of Carroll County Airport that you would like to share? If so, please send us your photo.

 
Sectional chart

 
Airport distance calculator
Flying to Carroll County Airport? Find the distance to fly.

From to 4M1

Sunrise and sunset
Times for 30-Nov-2021
 Local
(UTC-6)
 Zulu
(UTC)
Morning civil twilight06:3912:39
Sunrise07:0813:08
Sunset16:5922:59
Evening civil twilight17:2723:27

Current date and time
Zulu (UTC)  01-Dec-2021 01:49:01
Local (UTC-6)  30-Nov-2021 19:49:01
 
METAR
KFWB 
22nm NE 
010135Z AUTO 13008KT 10SM CLR 15/05 A3005 RMK AO2
KROG 
22nm W 
010058Z 12006KT 10SM CLR 14/06 A3004 RMK AO2 SLP174 T01440061 $
KBBG 
22nm NE 
010045Z 11006KT 10SM CLR 14/05 A3007
KHRO 
24nm E 
010053Z AUTO 17005KT 10SM CLR 12/04 A3007 RMK AO2 SLP178 T01220044
KASG 
27nm SW 
010048Z 09005KT 10SM CLR 16/07 A3005
KVBT 
29nm W 
010056Z AUTO 12004KT 6SM HZ CLR 14/06 A3005 RMK AO2 SLP179 T01440061
KXNA 
33nm W 
010053Z 17004KT 10SM CLR 14/06 A3004 RMK AO2 SLP172 T01390056
KFYV 
34nm SW 
010053Z 17005KT 10SM CLR 09/04 A3004 RMK AO2 SLP174 T00940044
KHFJ 
37nm NW 
010135Z AUTO 07004KT 10SM CLR 11/05 A3004 RMK AO2
KSLG 
42nm W 
010056Z AUTO 13003KT 10SM CLR 16/06 A3004 RMK AO2 SLP172 T01610056
TAF
KROG 
22nm W 
301720Z 3018/0118 VRB04KT P6SM SCT250
KBBG 
22nm NE 
301720Z 3018/0118 VRB04KT P6SM FEW200 FM011200 23006KT P6SM FEW150
KHRO 
24nm E 
301723Z 3018/0118 06006KT P6SM FEW250 FM010100 14004KT P6SM BKN250 FM011200 23007KT P6SM BKN250
NOTAMs
Click for the latest NOTAMs
NOTAMs are issued by the DoD/FAA and will open in a separate window not controlled by AirNav.

 

 
 

FBO, Fuel Providers, and Aircraft Ground Support

  
 Business Name 
 
 Contact 
 
 Services / Description 
 
Fuel Prices
 
Comments
  
Carroll County Airport 870-423-8393
870-423-2120
[web site]
[email]
Airport management, Aviation fuel, Aircraft parking (ramp or tiedown), Hangars, Hangar leasing / sales, Passenger terminal and lounge, Flight training, ...

More info about Carroll County Airport
Titan
100LL
SS $4.99 
 Updated 23-Nov-2021
 
   1 read write
SS=Self service
Update Fuel Prices
 

Would you like to see your business listed on this page?

 If your business provides an interesting product or service to pilots, flight crews, aircraft, or users of the Carroll County Airport, you should consider listing it here.  To start the listing process, click on the button below
 
Add a business
 

Other Pages about Carroll County Airport

co.carroll.ar.us
Carroll County Airport
 
Update a link
 
Copyright © AirNav, LLC. All rights reserved. Privacy Policy  Contact